TimePDT,TemperatureF,Dew PointF,Humidity,Sea Level PressureIn,VisibilityMPH,Wind Direction,Wind SpeedMPH,Gust SpeedMPH,PrecipitationIn,Events,Conditions,WindDirDegrees,DateUTC
12:53 AM,41.0,19.9,43,30.05,10.0,Calm,Calm,-,N/A,,Overcast,0,2013-03-19 07:53:00
1:53 AM,39.9,23.0,51,30.05,10.0,South,5.8,-,N/A,,Overcast,180,2013-03-19 08:53:00
2:53 AM,39.9,25.0,55,30.04,10.0,SE,5.8,-,N/A,,Overcast,130,2013-03-19 09:53:00
3:53 AM,42.1,25.0,51,30.03,10.0,South,10.4,-,N/A,,Overcast,180,2013-03-19 10:53:00
4:53 AM,39.9,26.1,58,30.04,10.0,SSW,5.8,-,N/A,,Overcast,210,2013-03-19 11:53:00
5:53 AM,39.0,28.9,67,30.05,10.0,SSW,9.2,-,N/A,,Overcast,200,2013-03-19 12:53:00
6:53 AM,39.9,28.9,65,30.06,10.0,South,5.8,-,N/A,,Overcast,170,2013-03-19 13:53:00
7:53 AM,39.0,28.9,67,30.08,10.0,Calm,Calm,-,N/A,,Overcast,0,2013-03-19 14:53:00
8:53 AM,44.1,30.0,58,30.09,10.0,South,5.8,-,N/A,,Overcast,190,2013-03-19 15:53:00
9:53 AM,45.0,28.9,53,30.09,10.0,South,4.6,-,N/A,,Overcast,170,2013-03-19 16:53:00
10:53 AM,48.9,28.9,46,30.08,10.0,South,11.5,16.1,N/A,,Partly Cloudy,190,2013-03-19 17:53:00
11:53 AM,51.1,27.0,39,30.07,10.0,South,11.5,23.0,N/A,,Scattered Clouds,190,2013-03-19 18:53:00
12:53 PM,53.1,28.0,38,30.06,10.0,South,11.5,19.6,N/A,,Scattered Clouds,190,2013-03-19 19:53:00
1:53 PM,52.0,28.0,40,30.07,10.0,South,13.8,20.7,N/A,,Partly Cloudy,190,2013-03-19 20:53:00
2:53 PM,54.0,28.0,37,30.04,10.0,SSW,9.2,23.0,N/A,,Partly Cloudy,210,2013-03-19 21:53:00
3:53 PM,52.0,28.0,40,30.04,10.0,SSW,11.5,21.9,N/A,,Clear,210,2013-03-19 22:53:00
5:53 PM,46.9,33.1,59,30.06,10.0,SSW,11.5,-,0.00,,Scattered Clouds,200,2013-03-20 00:53:00
6:53 PM,46.9,30.0,52,30.04,10.0,South,16.1,27.6,N/A,,Mostly Cloudy,190,2013-03-20 01:53:00
7:39 PM,44.6,35.6,71,30.11,10.0,South,15.0,21.9,0.00,Rain,Light Rain,190,2013-03-20 02:39:00
7:53 PM,43.0,35.1,74,30.06,9.0,SSW,11.5,-,0.00,Rain,Light Rain,200,2013-03-20 02:53:00
8:19 PM,42.8,35.6,76,30.11,10.0,SW,6.9,-,0.00,Rain,Light Rain,220,2013-03-20 03:19:00
8:53 PM,41.0,34.0,76,30.05,10.0,SSW,6.9,-,0.00,Rain,Light Rain,200,2013-03-20 03:53:00
9:53 PM,41.0,34.0,76,30.05,10.0,South,9.2,-,0.00,Rain,Light Rain,180,2013-03-20 04:53:00
10:53 PM,39.9,33.1,77,30.02,8.0,SSE,9.2,-,0.00,Rain,Light Rain,160,2013-03-20 05:53:00
11:53 PM,39.0,32.0,76,30.02,9.0,SSE,9.2,-,0.01,Rain,Light Rain,150,2013-03-20 06:53:00